| time (UTC) | temp F | wind direction | speed MPH | gust MPH | rain 1hr in | rain 24hr in | rain mn in | humidity % | barometer mb |
| 20260506155503 | 65 | 181 | 3.0 | 8.0 | 0.00 | 0.00 | 0.00 | 74 | 1009.5 |
| 20260506155003 | 65 | 200 | 2.0 | 6.0 | 0.00 | 0.00 | 0.00 | 74 | 1009.6 |
| 20260506154516 | 65 | 233 | 2.0 | 5.0 | 0.00 | 0.00 | 0.00 | 73 | 1009.8 |
| 20260506154007 | 65 | 77 | 1.0 | 5.0 | 0.00 | 0.00 | 0.00 | 72 | 1009.9 |
| 20260506153506 | 66 | 177 | 2.0 | 6.0 | 0.00 | 0.00 | 0.00 | 72 | 1010.0 |
| 20260506153022 | 66 | 117 | 1.0 | 7.0 | 0.00 | 0.00 | 0.00 | 73 | 1009.6 |
| 20260506152508 | 66 | 302 | 0.0 | 7.0 | 0.00 | 0.00 | 0.00 | 73 | 1009.7 |
| 20260506152008 | 66 | 267 | 2.0 | 8.0 | 0.00 | 0.00 | 0.00 | 73 | 1009.9 |
| 20260506151533 | 65 | 219 | 1.0 | 8.0 | 0.00 | 0.00 | 0.00 | 74 | 1010.1 |
| 20260506151007 | 65 | 220 | 2.0 | 7.0 | 0.00 | 0.00 | 0.00 | 74 | 1010.0 |
| 20260506150504 | 65 | 184 | 1.0 | 5.0 | 0.00 | 0.00 | 0.00 | 75 | 1009.8 |
| 20260506150008 | 65 | 93 | 2.0 | 6.0 | 0.00 | 0.00 | 0.00 | 75 | 1009.8 |
| 20260506145505 | 64 | 113 | 3.0 | 7.0 | 0.00 | 0.00 | 0.00 | 74 | 1009.9 |
| 20260506145004 | 64 | 297 | 2.0 | 7.0 | 0.00 | 0.00 | 0.00 | 74 | 1009.9 |
| 20260506144516 | 65 | 238 | 3.0 | 6.0 | 0.00 | 0.00 | 0.00 | 74 | 1010.0 |
| 20260506144006 | 65 | 292 | 1.0 | 6.0 | 0.00 | 0.00 | 0.00 | 74 | 1009.9 |
| 20260506143507 | 65 | 229 | 3.0 | 7.0 | 0.00 | 0.00 | 0.00 | 74 | 1009.9 |
| 20260506143022 | 65 | 276 | 4.0 | 10.0 | 0.00 | 0.00 | 0.00 | 74 | 1009.9 |
| 20260506142508 | 65 | 243 | 2.0 | 10.0 | 0.00 | 0.00 | 0.00 | 74 | 1010.0 |
| 20260506142007 | 65 | 248 | 3.0 | 8.0 | 0.00 | 0.00 | 0.00 | 74 | 1010.1 |
| 20260506141522 | 64 | 210 | 0.0 | 9.0 | 0.00 | 0.00 | 0.00 | 75 | 1010.0 |
| 20260506141006 | 64 | 252 | 2.0 | 9.0 | 0.00 | 0.00 | 0.00 | 76 | 1010.0 |
| 20260506140509 | 64 | 238 | 1.0 | 7.0 | 0.00 | 0.00 | 0.00 | 77 | 1010.0 |
| 20260506140009 | 64 | 250 | 2.0 | 8.0 | 0.00 | 0.00 | 0.00 | 76 | 1009.9 |
| 20260506135502 | 64 | 214 | 2.0 | 8.0 | 0.00 | 0.00 | 0.00 | 76 | 1009.9 |
| 20260506135006 | 63 | 197 | 2.0 | 7.0 | 0.00 | 0.00 | 0.00 | 78 | 1010.0 |
| 20260506134510 | 63 | 125 | 3.0 | 8.0 | 0.00 | 0.00 | 0.00 | 77 | 1010.0 |
| 20260506134006 | 63 | 117 | 2.0 | 10.0 | 0.00 | 0.00 | 0.00 | 77 | 1010.1 |
| 20260506133506 | 63 | 204 | 2.0 | 10.0 | 0.00 | 0.00 | 0.00 | 78 | 1010.0 |
| 20260506133038 | 63 | 264 | 2.0 | 10.0 | 0.00 | 0.00 | 0.00 | 79 | 1010.0 |
| 20260506132508 | 62 | 158 | 2.0 | 10.0 | 0.00 | 0.00 | 0.00 | 79 | 1010.0 |
| 20260506132008 | 62 | 264 | 2.0 | 8.0 | 0.00 | 0.00 | 0.00 | 79 | 1009.9 |
| 20260506131530 | 62 | 174 | 2.0 | 8.0 | 0.00 | 0.00 | 0.00 | 80 | 1009.9 |
| 20260506131008 | 62 | 132 | 1.0 | 6.0 | 0.00 | 0.00 | 0.00 | 80 | 1009.8 |
| 20260506130508 | 62 | 176 | 3.0 | 6.0 | 0.00 | 0.00 | 0.00 | 80 | 1009.9 |
| 20260506130024 | 61 | 242 | 1.0 | 6.0 | 0.00 | 0.00 | 0.00 | 80 | 1009.9 |
| 20260506125506 | 61 | 193 | 1.0 | 7.0 | 0.00 | 0.00 | 0.00 | 80 | 1009.8 |
| 20260506125007 | 61 | 238 | 3.0 | 8.0 | 0.00 | 0.00 | 0.00 | 80 | 1009.9 |
| 20260506124509 | 61 | 84 | 0.0 | 8.0 | 0.00 | 0.00 | 0.00 | 81 | 1009.8 |
| 20260506124006 | 61 | 176 | 2.0 | 8.0 | 0.00 | 0.00 | 0.00 | 81 | 1009.9 |
| 20260506123503 | 60 | 245 | 2.0 | 7.0 | 0.00 | 0.00 | 0.00 | 81 | 1009.9 |
| 20260506123014 | 60 | 77 | 2.0 | 9.0 | 0.00 | 0.00 | 0.00 | 81 | 1010.1 |
| 20260506122507 | 60 | 269 | 5.0 | 10.0 | 0.00 | 0.00 | 0.00 | 82 | 1010.1 |
| 20260506122007 | 60 | 147 | 6.0 | 10.0 | 0.00 | 0.00 | 0.00 | 82 | 1010.2 |
| 20260506121520 | 60 | 104 | 2.0 | 9.0 | 0.00 | 0.00 | 0.00 | 82 | 1010.3 |
| 20260506121007 | 60 | 273 | 3.0 | 9.0 | 0.00 | 0.00 | 0.00 | 82 | 1010.4 |
| 20260506120507 | 60 | 250 | 2.0 | 9.0 | 0.00 | 0.00 | 0.00 | 83 | 1010.3 |
| 20260506120035 | 59 | 285 | 3.0 | 9.0 | 0.00 | 0.00 | 0.00 | 84 | 1010.2 |
| 20260506115508 | 59 | 278 | 1.0 | 6.0 | 0.00 | 0.00 | 0.00 | 84 | 1010.1 |
| 20260506115009 | 59 | 200 | 1.0 | 6.0 | 0.00 | 0.00 | 0.00 | 85 | 1010.1 |
| 20260506114524 | 58 | 131 | 2.0 | 6.0 | 0.00 | 0.00 | 0.00 | 85 | 1010.1 |
| 20260506114007 | 58 | 164 | 2.0 | 6.0 | 0.00 | 0.00 | 0.00 | 86 | 1010.1 |
| 20260506113503 | 58 | 274 | 1.0 | 8.0 | 0.00 | 0.00 | 0.00 | 86 | 1010.1 |
| 20260506113012 | 58 | 213 | 4.0 | 11.0 | 0.00 | 0.00 | 0.00 | 86 | 1010.1 |
| 20260506112506 | 58 | 233 | 3.0 | 11.0 | 0.00 | 0.00 | 0.00 | 86 | 1010.1 |
| 20260506112008 | 57 | 94 | 2.0 | 9.0 | 0.00 | 0.00 | 0.00 | 86 | 1010.1 |
| 20260506111516 | 57 | 224 | 2.0 | 9.0 | 0.00 | 0.00 | 0.00 | 87 | 1010.3 |
| 20260506111007 | 57 | 249 | 4.0 | 9.0 | 0.00 | 0.00 | 0.00 | 87 | 1010.2 |
| 20260506110513 | 57 | 186 | 2.0 | 7.0 | 0.00 | 0.00 | 0.00 | 88 | 1010.2 |
| 20260506110022 | 57 | 226 | 1.0 | 6.0 | 0.00 | 0.00 | 0.00 | 88 | 1010.2 |
| 20260506105507 | 56 | 246 | 2.0 | 6.0 | 0.00 | 0.00 | 0.00 | 88 | 1010.3 |
| 20260506105008 | 56 | 149 | 2.0 | 5.0 | 0.00 | 0.00 | 0.00 | 88 | 1010.3 |
| 20260506104526 | 56 | 115 | 0.0 | 9.0 | 0.00 | 0.00 | 0.00 | 88 | 1010.3 |
| 20260506104008 | 56 | 237 | 3.0 | 9.0 | 0.00 | 0.00 | 0.00 | 88 | 1010.3 |
| 20260506103511 | 56 | 281 | 2.0 | 7.0 | 0.00 | 0.00 | 0.00 | 88 | 1010.1 |
| 20260506103031 | 56 | 228 | 2.0 | 6.0 | 0.00 | 0.00 | 0.00 | 88 | 1010.0 |
| 20260506102504 | 56 | 219 | 2.0 | 8.0 | 0.00 | 0.00 | 0.00 | 89 | 1010.1 |
| 20260506102004 | 56 | 210 | 4.0 | 8.0 | 0.00 | 0.00 | 0.00 | 89 | 1010.1 |
| 20260506101517 | 55 | 213 | 2.0 | 6.0 | 0.00 | 0.00 | 0.00 | 89 | 1010.2 |
| 20260506101010 | 55 | 359 | 1.0 | 7.0 | 0.00 | 0.00 | 0.00 | 88 | 1010.1 |
| 20260506100507 | 56 | 188 | 3.0 | 11.0 | 0.00 | 0.00 | 0.00 | 89 | 1010.1 |
| 20260506100028 | 55 | 219 | 2.0 | 12.0 | 0.00 | 0.00 | 0.00 | 88 | 1010.1 |
| 20260506095508 | 56 | 47 | 2.0 | 12.0 | 0.00 | 0.00 | 0.00 | 88 | 1010.0 |
| 20260506095009 | 55 | 134 | 2.0 | 8.0 | 0.00 | 0.00 | 0.00 | 88 | 1009.9 |
| 20260506094525 | 56 | 149 | 3.0 | 11.0 | 0.00 | 0.00 | 0.00 | 88 | 1009.9 |
| 20260506094007 | 56 | 77 | 2.0 | 11.0 | 0.00 | 0.00 | 0.00 | 88 | 1010.1 |
| 20260506093507 | 56 | 276 | 1.0 | 8.0 | 0.00 | 0.00 | 0.00 | 88 | 1010.1 |
| 20260506093026 | 56 | 179 | 3.0 | 10.0 | 0.00 | 0.00 | 0.00 | 88 | 1010.0 |
| 20260506092510 | 56 | 126 | 2.0 | 10.0 | 0.00 | 0.00 | 0.00 | 88 | 1009.9 |
| 20260506092010 | 56 | 359 | 3.0 | 10.0 | 0.00 | 0.00 | 0.00 | 88 | 1009.9 |
| 20260506091528 | 56 | 18 | 3.0 | 10.0 | 0.00 | 0.00 | 0.00 | 87 | 1010.0 |
| 20260506091004 | 56 | 114 | 4.0 | 11.0 | 0.00 | 0.00 | 0.00 | 87 | 1010.1 |
| 20260506090506 | 56 | 298 | 3.0 | 11.0 | 0.00 | 0.00 | 0.00 | 87 | 1010.1 |
| 20260506090017 | 56 | 163 | 2.0 | 9.0 | 0.00 | 0.00 | 0.00 | 87 | 1010.1 |
| 20260506085507 | 56 | 226 | 3.0 | 9.0 | 0.00 | 0.00 | 0.00 | 86 | 1010.1 |
| 20260506085007 | 56 | 259 | 4.0 | 9.0 | 0.00 | 0.00 | 0.00 | 86 | 1010.2 |
| 20260506084533 | 56 | 188 | 1.0 | 8.0 | 0.00 | 0.00 | 0.00 | 86 | 1010.2 |
| 20260506084008 | 56 | 113 | 2.0 | 9.0 | 0.00 | 0.00 | 0.00 | 86 | 1010.3 |
| 20260506083510 | 56 | 224 | 4.0 | 9.0 | 0.00 | 0.00 | 0.00 | 85 | 1010.3 |
| 20260506083028 | 56 | 185 | 2.0 | 8.0 | 0.00 | 0.00 | 0.00 | 85 | 1010.3 |
| 20260506082509 | 57 | 212 | 3.0 | 12.0 | 0.00 | 0.00 | 0.00 | 85 | 1010.3 |
| 20260506082007 | 57 | 276 | 6.0 | 12.0 | 0.00 | 0.00 | 0.00 | 85 | 1010.4 |
| 20260506081528 | 57 | 279 | 4.0 | 15.0 | 0.00 | 0.00 | 0.00 | 84 | 1010.4 |
| 20260506081015 | 57 | 140 | 4.0 | 15.0 | 0.00 | 0.00 | 0.00 | 84 | 1010.4 |
| 20260506080509 | 57 | 234 | 3.0 | 13.0 | 0.00 | 0.00 | 0.00 | 84 | 1010.3 |
| 20260506073506 | 57 | 105 | 1.0 | 9.0 | 0.00 | 0.00 | 0.00 | 83 | 1010.4 |
| 20260506073023 | 57 | 273 | 2.0 | 8.0 | 0.00 | 0.00 | 0.00 | 83 | 1010.4 |
| 20260506072511 | 57 | 196 | 3.0 | 7.0 | 0.00 | 0.00 | 0.00 | 83 | 1010.5 |
| 20260506072010 | 57 | 99 | 2.0 | 7.0 | 0.00 | 0.00 | 0.00 | 83 | 1010.5 |
| 20260506071526 | 57 | 193 | 3.0 | 8.0 | 0.00 | 0.00 | 0.00 | 82 | 1010.4 |
| 20260506071010 | 57 | 223 | 2.0 | 8.0 | 0.00 | 0.00 | 0.00 | 82 | 1010.5 |
| 20260506070504 | 57 | 189 | 3.0 | 8.0 | 0.00 | 0.00 | 0.00 | 82 | 1010.5 |
| 20260506062505 | 59 | 228 | 2.0 | 9.0 | 0.00 | 0.00 | 0.00 | 79 | 1010.4 |
| 20260506062005 | 59 | 213 | 2.0 | 9.0 | 0.00 | 0.00 | 0.00 | 79 | 1010.4 |
| 20260506061505 | 59 | 171 | 2.0 | 7.0 | 0.00 | 0.00 | 0.00 | 79 | 1010.5 |
| 20260506061004 | 59 | 207 | 3.0 | 8.0 | 0.00 | 0.00 | 0.00 | 79 | 1010.3 |
| 20260506060504 | 58 | 192 | 2.0 | 8.0 | 0.00 | 0.00 | 0.00 | 79 | 1010.3 |
| 20260506051004 | 60 | 183 | 1.0 | 7.0 | 0.00 | 0.00 | 0.00 | 74 | 1010.8 |
| 20260506050504 | 60 | 246 | 2.0 | 9.0 | 0.00 | 0.00 | 0.00 | 73 | 1010.7 |
| 20260506045005 | 61 | 251 | 3.0 | 7.0 | 0.00 | 0.00 | 0.00 | 72 | 1010.9 |
| 20260506044513 | 61 | 219 | 2.0 | 8.0 | 0.00 | 0.00 | 0.00 | 72 | 1010.9 |
| 20260506044005 | 61 | 306 | 4.0 | 8.0 | 0.00 | 0.00 | 0.00 | 71 | 1011.0 |
| 20260506043509 | 61 | 228 | 2.0 | 8.0 | 0.00 | 0.00 | 0.00 | 71 | 1010.9 |
| 20260506043020 | 61 | 231 | 2.0 | 8.0 | 0.00 | 0.00 | 0.00 | 71 | 1010.9 |
| 20260506042508 | 62 | 271 | 2.0 | 8.0 | 0.00 | 0.00 | 0.00 | 70 | 1010.9 |
| 20260506042010 | 62 | 217 | 2.0 | 8.0 | 0.00 | 0.00 | 0.00 | 70 | 1010.9 |
| 20260506041520 | 62 | 115 | 2.0 | 9.0 | 0.00 | 0.00 | 0.00 | 70 | 1010.9 |
| 20260506041003 | 62 | 215 | 3.0 | 9.0 | 0.00 | 0.00 | 0.00 | 70 | 1010.8 |
| 20260506040503 | 61 | 264 | 3.0 | 9.0 | 0.00 | 0.00 | 0.00 | 70 | 1010.8 |
| 20260506040016 | 62 | 208 | 1.0 | 9.0 | 0.00 | 0.00 | 0.00 | 70 | 1010.9 |
| 20260506035504 | 62 | 217 | 1.0 | 7.0 | 0.00 | 0.00 | 0.00 | 70 | 1011.0 |
| 20260506035004 | 62 | 116 | 1.0 | 7.0 | 0.00 | 0.00 | 0.00 | 70 | 1010.9 |
| 20260506034512 | 62 | 194 | 3.0 | 6.0 | 0.00 | 0.00 | 0.00 | 70 | 1010.9 |
| 20260506034005 | 62 | 233 | 1.0 | 6.0 | 0.00 | 0.00 | 0.00 | 70 | 1010.9 |
| 20260506033506 | 62 | 205 | 1.0 | 6.0 | 0.00 | 0.00 | 0.00 | 70 | 1010.9 |
| 20260506033018 | 62 | 173 | 1.0 | 6.0 | 0.00 | 0.00 | 0.00 | 69 | 1010.8 |
| 20260506032511 | 62 | 167 | 3.0 | 7.0 | 0.00 | 0.00 | 0.00 | 69 | 1010.8 |
| 20260506032005 | 62 | 206 | 3.0 | 7.0 | 0.00 | 0.00 | 0.00 | 69 | 1010.8 |
| 20260506031522 | 62 | 120 | 1.0 | 8.0 | 0.00 | 0.00 | 0.00 | 68 | 1010.8 |
| 20260506031008 | 62 | 226 | 4.0 | 8.0 | 0.00 | 0.00 | 0.00 | 68 | 1010.7 |
| 20260506030513 | 62 | 262 | 2.0 | 8.0 | 0.00 | 0.00 | 0.00 | 68 | 1010.7 |
| 20260506030024 | 63 | 182 | 3.0 | 8.0 | 0.00 | 0.00 | 0.00 | 68 | 1010.7 |
| 20260506025503 | 62 | 191 | 1.0 | 8.0 | 0.00 | 0.00 | 0.00 | 68 | 1010.7 |
| 20260506025004 | 63 | 81 | 3.0 | 14.0 | 0.00 | 0.00 | 0.00 | 67 | 1010.7 |
| 20260506024507 | 63 | 204 | 3.0 | 14.0 | 0.00 | 0.00 | 0.00 | 67 | 1010.6 |
| 20260506024003 | 63 | 138 | 1.0 | 9.0 | 0.00 | 0.00 | 0.00 | 67 | 1010.6 |
| 20260506023502 | 63 | 248 | 3.0 | 7.0 | 0.00 | 0.00 | 0.00 | 67 | 1010.7 |
| 20260506023023 | 63 | 127 | 3.0 | 6.0 | 0.00 | 0.00 | 0.00 | 67 | 1010.6 |
| 20260506022508 | 63 | 180 | 1.0 | 5.0 | 0.00 | 0.00 | 0.00 | 66 | 1010.6 |
| 20260506022012 | 63 | 195 | 2.0 | 11.0 | 0.00 | 0.00 | 0.00 | 66 | 1010.6 |
| 20260506021530 | 63 | 238 | 2.0 | 11.0 | 0.00 | 0.00 | 0.00 | 66 | 1010.7 |
| 20260506021008 | 63 | 115 | 3.0 | 11.0 | 0.00 | 0.00 | 0.00 | 66 | 1010.6 |
| 20260506020507 | 63 | 181 | 3.0 | 10.0 | 0.00 | 0.00 | 0.00 | 65 | 1010.5 |
| 20260506020024 | 64 | 209 | 2.0 | 8.0 | 0.00 | 0.00 | 0.00 | 65 | 1010.7 |
| 20260506015510 | 64 | 93 | 2.0 | 11.0 | 0.00 | 0.00 | 0.00 | 64 | 1010.5 |
| 20260506015014 | 64 | 246 | 4.0 | 10.0 | 0.00 | 0.00 | 0.00 | 64 | 1010.4 |
| 20260506014507 | 64 | 207 | 2.0 | 9.0 | 0.00 | 0.00 | 0.00 | 64 | 1010.3 |
| 20260506014003 | 64 | 183 | 2.0 | 8.0 | 0.00 | 0.00 | 0.00 | 63 | 1010.3 |
| 20260506013505 | 64 | 297 | 2.0 | 8.0 | 0.00 | 0.00 | 0.00 | 63 | 1010.4 |
| 20260506013010 | 64 | 123 | 3.0 | 7.0 | 0.00 | 0.00 | 0.00 | 63 | 1010.3 |
| 20260506012503 | 65 | 77 | 2.0 | 7.0 | 0.00 | 0.00 | 0.00 | 63 | 1010.2 |
| 20260506012007 | 65 | 194 | 3.0 | 8.0 | 0.00 | 0.00 | 0.00 | 62 | 1010.0 |
| 20260506011516 | 65 | 268 | 4.0 | 8.0 | 0.00 | 0.00 | 0.00 | 62 | 1009.9 |
| 20260506011012 | 65 | 205 | 2.0 | 7.0 | 0.00 | 0.00 | 0.00 | 62 | 1009.9 |
| 20260506010513 | 65 | 225 | 1.0 | 7.0 | 0.00 | 0.00 | 0.00 | 62 | 1009.8 |
| 20260506010038 | 65 | 203 | 3.0 | 11.0 | 0.00 | 0.00 | 0.00 | 62 | 1009.8 |
| 20260506005509 | 65 | 238 | 4.0 | 11.0 | 0.00 | 0.00 | 0.00 | 62 | 1009.9 |
| 20260506005011 | 66 | 272 | 2.0 | 7.0 | 0.00 | 0.00 | 0.00 | 61 | 1009.9 |
| 20260506004526 | 66 | 80 | 2.0 | 7.0 | 0.00 | 0.00 | 0.00 | 61 | 1009.8 |
| 20260506004008 | 66 | 217 | 3.0 | 11.0 | 0.00 | 0.00 | 0.00 | 60 | 1009.8 |
| 20260506003504 | 66 | 201 | 2.0 | 11.0 | 0.00 | 0.00 | 0.00 | 60 | 1009.7 |
| 20260506003011 | 66 | 75 | 2.0 | 9.0 | 0.00 | 0.00 | 0.00 | 60 | 1009.6 |
| 20260506002506 | 66 | 237 | 2.0 | 9.0 | 0.00 | 0.00 | 0.00 | 60 | 1009.4 |
| 20260506002004 | 66 | 194 | 2.0 | 8.0 | 0.00 | 0.00 | 0.00 | 60 | 1009.3 |
| 20260506001515 | 66 | 181 | 3.0 | 10.0 | 0.00 | 0.00 | 0.00 | 60 | 1009.4 |
| 20260506001003 | 67 | 219 | 3.0 | 10.0 | 0.00 | 0.00 | 0.00 | 60 | 1009.3 |
| 20260506000507 | 67 | 141 | 2.0 | 10.0 | 0.00 | 0.00 | 0.00 | 60 | 1009.2 |
| 20260506000019 | 67 | 242 | 2.0 | 12.0 | 0.00 | 0.00 | 0.00 | 59 | 1009.2 |
| 20260505235509 | 67 | 158 | 4.0 | 12.0 | 0.00 | 0.00 | 0.00 | 59 | 1009.1 |
| 20260505235007 | 67 | 229 | 5.0 | 12.0 | 0.00 | 0.00 | 0.00 | 59 | 1009.0 |
| 20260505234534 | 67 | 221 | 3.0 | 10.0 | 0.00 | 0.00 | 0.00 | 59 | 1008.8 |
| 20260505234007 | 67 | 162 | 3.0 | 12.0 | 0.00 | 0.00 | 0.00 | 59 | 1008.8 |
| 20260505233509 | 67 | 97 | 3.0 | 12.0 | 0.00 | 0.00 | 0.00 | 58 | 1008.8 |
| 20260505233034 | 67 | 285 | 4.0 | 14.0 | 0.00 | 0.00 | 0.00 | 59 | 1008.8 |
| 20260505232505 | 67 | 304 | 4.0 | 12.0 | 0.00 | 0.00 | 0.00 | 59 | 1009.0 |
| 20260505232007 | 68 | 274 | 3.0 | 10.0 | 0.00 | 0.00 | 0.00 | 58 | 1008.9 |
| 20260505231512 | 68 | 211 | 4.0 | 11.0 | 0.00 | 0.00 | 0.00 | 58 | 1008.7 |
| 20260505231003 | 68 | 242 | 2.0 | 11.0 | 0.00 | 0.00 | 0.00 | 58 | 1008.7 |
| 20260505230504 | 68 | 217 | 3.0 | 11.0 | 0.00 | 0.00 | 0.00 | 57 | 1008.7 |
| 20260505230017 | 69 | 211 | 3.0 | 8.0 | 0.00 | 0.00 | 0.00 | 57 | 1008.7 |
| 20260505225505 | 69 | 253 | 3.0 | 8.0 | 0.00 | 0.00 | 0.00 | 56 | 1008.6 |
| 20260505225008 | 70 | 285 | 1.0 | 8.0 | 0.00 | 0.00 | 0.00 | 56 | 1008.5 |
| 20260505224522 | 70 | 146 | 3.0 | 11.0 | 0.00 | 0.00 | 0.00 | 55 | 1008.3 |
| 20260505224010 | 70 | 198 | 4.0 | 12.0 | 0.00 | 0.00 | 0.00 | 55 | 1008.3 |
| 20260505223516 | 71 | 122 | 3.0 | 12.0 | 0.00 | 0.00 | 0.00 | 55 | 1008.1 |
| 20260505223025 | 71 | 217 | 4.0 | 12.0 | 0.00 | 0.00 | 0.00 | 54 | 1008.3 |
| 20260505222513 | 71 | 137 | 2.0 | 11.0 | 0.00 | 0.00 | 0.00 | 54 | 1008.2 |
| 20260505222009 | 72 | 79 | 3.0 | 8.0 | 0.00 | 0.00 | 0.00 | 54 | 1008.4 |
| 20260505221528 | 72 | 235 | 2.0 | 11.0 | 0.00 | 0.00 | 0.00 | 54 | 1008.4 |
| 20260505221009 | 72 | 199 | 4.0 | 11.0 | 0.00 | 0.00 | 0.00 | 53 | 1008.5 |
| 20260505220503 | 72 | 139 | 3.0 | 10.0 | 0.00 | 0.00 | 0.00 | 54 | 1008.5 |
| 20260505220016 | 73 | 268 | 3.0 | 14.0 | 0.00 | 0.00 | 0.00 | 53 | 1008.5 |
| 20260505215504 | 73 | 225 | 3.0 | 14.0 | 0.00 | 0.00 | 0.00 | 54 | 1008.3 |
| 20260505215005 | 73 | 263 | 5.0 | 11.0 | 0.00 | 0.00 | 0.00 | 53 | 1008.3 |
| 20260505214541 | 73 | 175 | 1.0 | 12.0 | 0.00 | 0.00 | 0.00 | 54 | 1008.1 |
| 20260505214008 | 73 | 138 | 3.0 | 12.0 | 0.00 | 0.00 | 0.00 | 54 | 1008.4 |
| 20260505213507 | 73 | 261 | 4.0 | 9.0 | 0.00 | 0.00 | 0.00 | 53 | 1008.2 |
| 20260505213023 | 73 | 147 | 4.0 | 14.0 | 0.00 | 0.00 | 0.00 | 53 | 1008.1 |
| 20260505212511 | 73 | 239 | 5.0 | 14.0 | 0.00 | 0.00 | 0.00 | 52 | 1008.2 |
| 20260505212012 | 74 | 260 | 3.0 | 13.0 | 0.00 | 0.00 | 0.00 | 52 | 1008.2 |
| 20260505211526 | 74 | 74 | 3.0 | 13.0 | 0.00 | 0.00 | 0.00 | 52 | 1008.0 |
| 20260505211008 | 74 | 221 | 3.0 | 8.0 | 0.00 | 0.00 | 0.00 | 54 | 1008.1 |
| 20260505210510 | 74 | 226 | 1.0 | 8.0 | 0.00 | 0.00 | 0.00 | 52 | 1007.9 |
| 20260505210012 | 74 | 215 | 3.0 | 11.0 | 0.00 | 0.00 | 0.00 | 52 | 1007.9 |
| 20260505205504 | 74 | 205 | 4.0 | 11.0 | 0.00 | 0.00 | 0.00 | 52 | 1007.9 |
| 20260505205010 | 74 | 131 | 4.0 | 11.0 | 0.00 | 0.00 | 0.00 | 51 | 1008.1 |
| 20260505204520 | 74 | 160 | 4.0 | 10.0 | 0.00 | 0.00 | 0.00 | 52 | 1008.2 |
| 20260505204010 | 74 | 246 | 3.0 | 15.0 | 0.00 | 0.00 | 0.00 | 52 | 1008.2 |
| 20260505203505 | 75 | 176 | 4.0 | 15.0 | 0.00 | 0.00 | 0.00 | 50 | 1008.0 |
| 20260505203033 | 76 | 179 | 3.0 | 11.0 | 0.00 | 0.00 | 0.00 | 52 | 1008.2 |
| 20260505202508 | 75 | 193 | 2.0 | 14.0 | 0.00 | 0.00 | 0.00 | 52 | 1008.3 |
| 20260505202011 | 75 | 181 | 4.0 | 14.0 | 0.00 | 0.00 | 0.00 | 51 | 1008.3 |
| 20260505201529 | 75 | 240 | 5.0 | 14.0 | 0.00 | 0.00 | 0.00 | 50 | 1008.2 |
| 20260505201010 | 76 | 250 | 3.0 | 14.0 | 0.00 | 0.00 | 0.00 | 50 | 1008.4 |
| 20260505200511 | 76 | 236 | 5.0 | 13.0 | 0.00 | 0.00 | 0.00 | 50 | 1008.3 |
| 20260505200029 | 76 | 229 | 3.0 | 12.0 | 0.00 | 0.00 | 0.00 | 51 | 1008.3 |
| 20260505195513 | 76 | 204 | 3.0 | 10.0 | 0.00 | 0.00 | 0.00 | 50 | 1008.4 |
| 20260505195004 | 76 | 91 | 3.0 | 13.0 | 0.00 | 0.00 | 0.00 | 52 | 1008.5 |
| 20260505194515 | 76 | 289 | 3.0 | 13.0 | 0.00 | 0.00 | 0.00 | 49 | 1008.5 |
| 20260505194005 | 77 | 231 | 4.0 | 11.0 | 0.00 | 0.00 | 0.00 | 48 | 1008.7 |
| 20260505193505 | 77 | 206 | 5.0 | 11.0 | 0.00 | 0.00 | 0.00 | 49 | 1008.5 |
| 20260505193019 | 77 | 252 | 2.0 | 11.0 | 0.00 | 0.00 | 0.00 | 50 | 1008.6 |
| 20260505192508 | 77 | 40 | 4.0 | 13.0 | 0.00 | 0.00 | 0.00 | 49 | 1008.3 |
| 20260505192008 | 76 | 86 | 2.0 | 17.0 | 0.00 | 0.00 | 0.00 | 49 | 1008.5 |
| 20260505191524 | 77 | 232 | 8.0 | 18.0 | 0.00 | 0.00 | 0.00 | 47 | 1008.6 |
| 20260505191011 | 77 | 269 | 7.0 | 18.0 | 0.00 | 0.00 | 0.00 | 47 | 1008.7 |
| 20260505190510 | 77 | 221 | 5.0 | 17.0 | 0.00 | 0.00 | 0.00 | 48 | 1008.8 |
| 20260505190027 | 77 | 219 | 4.0 | 17.0 | 0.00 | 0.00 | 0.00 | 47 | 1008.7 |
| 20260505185510 | 78 | 205 | 3.0 | 17.0 | 0.00 | 0.00 | 0.00 | 50 | 1009.0 |
| 20260505185015 | 78 | 203 | 5.0 | 12.0 | 0.00 | 0.00 | 0.00 | 47 | 1009.1 |
| 20260505184530 | 78 | 242 | 4.0 | 10.0 | 0.00 | 0.00 | 0.00 | 47 | 1009.0 |
| 20260505184003 | 78 | 85 | 3.0 | 11.0 | 0.00 | 0.00 | 0.00 | 49 | 1009.1 |
| 20260505183504 | 78 | 217 | 4.0 | 11.0 | 0.00 | 0.00 | 0.00 | 47 | 1009.2 |
| 20260505183021 | 78 | 248 | 3.0 | 9.0 | 0.00 | 0.00 | 0.00 | 49 | 1009.2 |
| 20260505182514 | 78 | 184 | 4.0 | 14.0 | 0.00 | 0.00 | 0.00 | 49 | 1009.2 |
| 20260505182007 | 77 | 236 | 4.0 | 14.0 | 0.00 | 0.00 | 0.00 | 49 | 1009.2 |
| 20260505181524 | 78 | 215 | 6.0 | 14.0 | 0.00 | 0.00 | 0.00 | 48 | 1009.3 |
| 20260505181007 | 77 | 266 | 3.0 | 11.0 | 0.00 | 0.00 | 0.00 | 49 | 1009.3 |
| 20260505180509 | 77 | 244 | 4.0 | 11.0 | 0.00 | 0.00 | 0.00 | 50 | 1009.2 |
| 20260505180051 | 77 | 179 | 6.0 | 12.0 | 0.00 | 0.00 | 0.00 | 48 | 1009.3 |
| 20260505175509 | 77 | 112 | 6.0 | 13.0 | 0.00 | 0.00 | 0.00 | 48 | 1009.3 |
| 20260505175015 | 77 | 216 | 4.0 | 13.0 | 0.00 | 0.00 | 0.00 | 48 | 1009.2 |
| 20260505174546 | 77 | 104 | 2.0 | 9.0 | 0.00 | 0.00 | 0.00 | 50 | 1009.2 |
| 20260505174010 | 77 | 210 | 4.0 | 13.0 | 0.00 | 0.00 | 0.00 | 47 | 1009.3 |
| 20260505173506 | 77 | 246 | 6.0 | 13.0 | 0.00 | 0.00 | 0.00 | 46 | 1009.3 |
| 20260505173022 | 78 | 189 | 4.0 | 10.0 | 0.00 | 0.00 | 0.00 | 47 | 1009.2 |
| 20260505172506 | 78 | 72 | 5.0 | 10.0 | 0.00 | 0.00 | 0.00 | 46 | 1009.4 |
| 20260505172008 | 78 | 316 | 3.0 | 9.0 | 0.00 | 0.00 | 0.00 | 48 | 1009.5 |
| 20260505171524 | 78 | 179 | 4.0 | 9.0 | 0.00 | 0.00 | 0.00 | 49 | 1009.5 |
| 20260505171007 | 77 | 222 | 2.0 | 9.0 | 0.00 | 0.00 | 0.00 | 49 | 1009.5 |
| 20260505170508 | 76 | 230 | 3.0 | 9.0 | 0.00 | 0.00 | 0.00 | 47 | 1009.6 |
| 20260505170026 | 77 | 266 | 4.0 | 8.0 | 0.00 | 0.00 | 0.00 | 48 | 1009.6 |
| 20260505165509 | 77 | 199 | 2.0 | 8.0 | 0.00 | 0.00 | 0.00 | 49 | 1009.7 |
| 20260505165009 | 76 | 251 | 3.0 | 10.0 | 0.00 | 0.00 | 0.00 | 49 | 1009.7 |
| 20260505164526 | 76 | 224 | 4.0 | 11.0 | 0.00 | 0.00 | 0.00 | 48 | 1009.9 |
| 20260505164013 | 76 | 222 | 4.0 | 11.0 | 0.00 | 0.00 | 0.00 | 49 | 1010.0 |
| 20260505163512 | 77 | 1 | 5.0 | 11.0 | 0.00 | 0.00 | 0.00 | 47 | 1010.1 |
| 20260505163026 | 76 | 115 | 3.0 | 8.0 | 0.00 | 0.00 | 0.00 | 52 | 1010.2 |
| 20260505162509 | 76 | 330 | 4.0 | 9.0 | 0.00 | 0.00 | 0.00 | 49 | 1010.2 |
| 20260505162010 | 76 | 84 | 2.0 | 9.0 | 0.00 | 0.00 | 0.00 | 51 | 1010.2 |
| 20260505161517 | 75 | 184 | 4.0 | 10.0 | 0.00 | 0.00 | 0.00 | 51 | 1010.3 |
| 20260505161007 | 75 | 162 | 2.0 | 10.0 | 0.00 | 0.00 | 0.00 | 52 | 1010.3 |
| 20260505160510 | 75 | 221 | 3.0 | 9.0 | 0.00 | 0.00 | 0.00 | 52 | 1010.3 |